星链-35067(STARLINK-35067)

导读 | 豆包AI

STARLINK-35067是由美国于2025年9月6日发射的卫星,隶属于SpaceX星链星座网络。星链项目旨在构建全球覆盖的低轨卫星互联网,为偏远地区等提供高速宽带接入服务,该卫星入轨后将补充星链卫星网络,进一步提升星座容量与覆盖能力,推动全球卫星通信网络的建设布局。

Basic Information
目录编号:
65527
目录名称:
STARLINK-35067
国际标识:
2025-200H
轨道中心:
EARTH
卫星名称:
星链-35067
卫星全名:
星链-35067(STARLINK-35067)
卫星状态:
在轨 (已飞行235 天)
发射日期:
2025-09-06 UTC
国别 :
美国 (US)
星等 :
--
Orbit Information
数据来源 国际轨道数据 AOE轨道数据
星历时间 2026-04-29T12:02:55+0800
6小时前
查看轨道信息
2026-04-23T00:00:00+0800
6天前
查看轨道信息
半长轴 6927.663km 6927.676km
偏心率 0.0000941 0.0000948
轨道倾角 97.558° 97.587°
近地点辐角 162.176° 159.731°
升交点赤经 189.482° 183.105°
平近点角 197.950° 259.363°
近地点 548.874km 548.882km
远地点 550.178km 550.196km
周期 95.640分钟 95.640分钟
每日圈数 15.056454 15.056411
Detailed Information
固有亮度:
5
最大亮度:
2.5
卫星平台:
Starlink V1.0
覆盖范围:
全球
运营商:
太空探索技术公司
运营商所在国:
美国
制造商(研发单位):
太空探索技术公司
制造商所在国:
美国
使用方式:
暂无
Satellite Introduction
Starlink 计划是 SpaceX 推出的全球卫星互联网项目,通过发射低轨道卫星,为全球尤其是偏远地区提供高速、低延迟的互联网服务。自 2019 年起,Starlink 已部署数千颗卫星,旨在缩小全球数字鸿沟,推动互联网普及。该项目还为军事、航空等行业提供通信支持,带来广泛经济效益。
2D Orbit Map
3D Orbit Map
Orbit Altitude Analysis Chart
Orbit Inclination Analysis Chart
Orbit Comprehensive Analysis Chart
View Comprehensive Chart